Alamosa, CO

2:59 AM MST on November 24, 2017 (GMT -0700)
San Luis Valley Regional / Bergman Field

Weather History for KALS - August, 2013

Change the Weather History Date:

Sunday, August 25, 2013

  Actual Average Record
Temperature  
Mean Temperature 66 °F 62 °F  
Max Temperature 77 °F 78 °F 87 °F (2002)
Min Temperature 54 °F 45 °F 30 °F (1962)
Degree Days  
Heating Degree Days 0 4  
Month to date heating degree days 47 58  
Since 1 June heating degree days 177 271  
Since 1 July heating degree days 75 103  
Cooling Degree Days 1 0  
Month to date cooling degree days 23 12  
Year to date cooling degree days 88 50  
Since 1 June cooling degree days 88 50  
Growing Degree Days 16 (Base 50)    
Moisture  
Dew Point 51 °F    
Average Humidity 61    
Maximum Humidity 83    
Minimum Humidity 38    
Precipitation  
Precipitation 0.02 in 0.04 in 0.33 in (1949)
Month to date precipitation 2.24 1.02  
Year to date precipitation 4.65 4.70  
Snow  
Snow 0.00 in 0.00 in 0.00 in (2002)
Month to date snowfall 0.0 0.0  
Since 1 June snowfall 0.0 0.0  
Since 1 July snowfall 0.0 0.0  
Snow Depth 0.00 in    
Sea Level Pressure  
Sea Level Pressure 30.14 in    
Wind  
Wind Speed 7 mph (South)    
Max Wind Speed 29 mph    
Max Gust Speed 37 mph    
Visibility 10 miles    
Events Rain    
T = Trace of Precipitation, MM = Missing Value Source: NWS Daily Summary

Daily Weather History Graph

Daily Weather History Graph

Search for Another Location

Airport or City:

Trip Planner

Search our weather history database for the weather conditions in past years. The results will help you decide how hot, cold, wet, or windy it might be!

Date:

Astronomy

Aug. 25, 2013 Rise Set
Actual Time 6:28 AM MDT 7:41 PM MDT
Civil Twilight 6:01 AM MDT 8:09 PM MDT
Nautical Twilight 5:28 AM MDT 8:41 PM MDT
Astronomical Twilight 4:54 AM MDT 9:14 PM MDT
Moon 10:22 PM MDT (8/25) 11:25 AM MDT (8/25)
Length of Visible Light 14h 07m
Length of Day
13h 13m
Waning Gibbous, 75% of the Moon is Illuminated
Aug 25
Waning Gibbous
Aug 28
Last Quarter
Sep 5
New
Sep 12
First Quarter
Sep 19
Full

Hourly Weather History & Observations

Time (MDT) Temp. Dew Point Humidity Pressure Visibility Wind Dir Wind Speed Gust Speed Precip Events Conditions
12:52 AM 61.0 °F 50.0 °F 67% 30.08 in 10.0 mi SSE 5.8 mph - N/A   Overcast
1:52 AM 62.1 °F 50.0 °F 65% 30.09 in 10.0 mi NNW 8.1 mph - N/A   Overcast
2:52 AM 59.0 °F 50.0 °F 72% 30.11 in 10.0 mi North 6.9 mph - N/A   Overcast
3:52 AM 59.0 °F 50.0 °F 72% 30.11 in 10.0 mi NNE 4.6 mph - N/A   Overcast
4:52 AM 55.9 °F 48.9 °F 77% 30.14 in 10.0 mi NE 5.8 mph - N/A   Mostly Cloudy
5:52 AM 55.9 °F 50.0 °F 80% 30.14 in 10.0 mi Calm Calm - N/A   Overcast
6:52 AM 55.0 °F 50.0 °F 83% 30.17 in 10.0 mi Calm Calm - N/A   Mostly Cloudy
7:52 AM 57.0 °F 51.1 °F 81% 30.19 in 10.0 mi Calm Calm - N/A   Overcast
8:52 AM 61.0 °F 51.1 °F 70% 30.17 in 10.0 mi SE 4.6 mph - N/A   Overcast
9:52 AM 68.0 °F 50.0 °F 52% 30.17 in 10.0 mi South 8.1 mph 17.3 mph N/A   Mostly Cloudy
10:52 AM 71.1 °F 50.0 °F 47% 30.15 in 10.0 mi SSE 11.5 mph - N/A   Mostly Cloudy
11:52 AM 73.0 °F 50.0 °F 44% 30.13 in 10.0 mi SSE 10.4 mph - N/A   Partly Cloudy
12:52 PM 73.9 °F 51.1 °F 45% 30.11 in 10.0 mi South 9.2 mph - N/A   Overcast
1:52 PM 73.9 °F 50.0 °F 43% 30.09 in 10.0 mi SSE 5.8 mph - 0.00 in   Mostly Cloudy
2:52 PM 75.0 °F 48.0 °F 38% 30.08 in 10.0 mi South 11.5 mph 19.6 mph N/A   Scattered Clouds
3:52 PM 75.0 °F 48.9 °F 40% 30.07 in 10.0 mi SW 18.4 mph 24.2 mph 0.00 in   Mostly Cloudy
4:04 PM 62.6 °F 55.4 °F 77% 30.38 in 9.0 mi SW 27.6 mph 36.8 mph 0.00 in Rain Light Rain
4:52 PM 63.0 °F 55.9 °F 78% 30.14 in 10.0 mi WSW 9.2 mph - 0.02 in   Overcast
5:52 PM 68.0 °F 55.0 °F 63% 30.12 in 10.0 mi SW 9.2 mph - N/A   Mostly Cloudy
6:52 PM 68.0 °F 53.1 °F 59% 30.13 in 10.0 mi South 11.5 mph - N/A   Scattered Clouds
7:52 PM 66.0 °F 53.1 °F 63% 30.15 in 10.0 mi SSW 8.1 mph - N/A   Mostly Cloudy
8:52 PM 62.1 °F 54.0 °F 75% 30.17 in 10.0 mi SW 5.8 mph - N/A   Mostly Cloudy
9:52 PM 61.0 °F 54.0 °F 78% 30.17 in 10.0 mi South 4.6 mph - N/A   Overcast
10:52 PM 57.9 °F 52.0 °F 81% 30.18 in 10.0 mi SSE 5.8 mph - N/A   Mostly Cloudy
11:52 PM 57.9 °F 52.0 °F 81% 30.16 in 10.0 mi SSW 4.6 mph - N/A   Mostly Cloudy